Fort Smith, AR

9:17 AM CDT on March 24, 2017 (GMT -0500)
Fort Smith Regional

Weather History for KFSM - December, 2014

Change the Weather History Date:

Wednesday, December 24, 2014

  Actual Average Record
Temperature  
Mean Temperature 37 °F 40 °F  
Max Temperature 43 °F 50 °F 80 °F (1955)
Min Temperature 31 °F 30 °F 0 °F (1983)
Degree Days  
Heating Degree Days 28 25  
Month to date heating degree days 480 554  
Since 1 July heating degree days 1099 1119  
Moisture  
Dew Point 32 °F    
Average Humidity 76    
Maximum Humidity 89    
Minimum Humidity 62    
Precipitation  
Precipitation T in 0.10 in 1.27 in (2009)
Month to date precipitation 2.16 2.66  
Year to date precipitation 41.99 44.83  
Sea Level Pressure  
Sea Level Pressure 29.92 in    
Wind  
Wind Speed 10 mph (WNW)    
Max Wind Speed 21 mph    
Max Gust Speed 25 mph    
Visibility 10 miles    
Events      
T = Trace of Precipitation, MM = Missing Value Source: NWS Daily Summary

Daily Weather History Graph

Daily Weather History Graph

Search for Another Location

Airport or City:

Trip Planner

Search our weather history database for the weather conditions in past years. The results will help you decide how hot, cold, wet, or windy it might be!

Date:

Astronomy

Dec. 24, 2014 Rise Set
Actual Time 7:23 AM CST 5:10 PM CST
Civil Twilight 6:55 AM CST 5:38 PM CST
Nautical Twilight 6:23 AM CST 6:10 PM CST
Astronomical Twilight 5:52 AM CST 6:41 PM CST
Moon 9:21 AM CST 8:29 PM CST
Length of Visible Light 10h 43m
Length of Day
9h 46m
Waxing Crescent, 10% of the Moon is Illuminated
Dec 24
Waxing Crescent
Dec 28
First Quarter
Jan 4
Full
Jan 13
Last Quarter
Jan 20
New

Hourly Weather History & Observations

Time (CST) Temp. Windchill Dew Point Humidity Pressure Visibility Wind Dir Wind Speed Gust Speed Precip Events Conditions
12:53 AM 42.1 °F 37.1 °F 30.0 °F 62% 29.84 in 10.0 mi WNW 8.1 mph - N/A   Overcast
1:53 AM 42.1 °F 37.1 °F 30.0 °F 62% 29.83 in 10.0 mi WNW 8.1 mph - N/A   Overcast
2:53 AM 41.0 °F 35.8 °F 32.0 °F 70% 29.83 in 10.0 mi WNW 8.1 mph - N/A   Overcast
3:53 AM 41.0 °F 35.2 °F 33.1 °F 73% 29.83 in 10.0 mi West 9.2 mph - N/A   Overcast
4:09 AM 39.9 °F 33.9 °F 34.0 °F 79% 29.83 in 10.0 mi West 9.2 mph - N/A   Overcast
4:53 AM 41.0 °F 34.3 °F 35.1 °F 79% 29.83 in 10.0 mi WNW 11.5 mph - N/A   Overcast
5:53 AM 41.0 °F 34.3 °F 34.0 °F 76% 29.84 in 10.0 mi NW 11.5 mph - N/A   Overcast
6:53 AM 41.0 °F 33.9 °F 33.1 °F 73% 29.86 in 10.0 mi WNW 12.7 mph - N/A   Overcast
7:53 AM 41.0 °F 34.3 °F 33.1 °F 73% 29.89 in 10.0 mi NW 11.5 mph - N/A   Overcast
8:05 AM 41.0 °F 33.9 °F 33.1 °F 73% 29.88 in 10.0 mi WNW 12.7 mph - N/A   Overcast
8:53 AM 39.0 °F 31.0 °F 35.1 °F 86% 29.90 in 10.0 mi West 13.8 mph - 0.00 in   Overcast
9:37 AM 39.9 °F 32.1 °F 34.0 °F 79% 29.91 in 10.0 mi West 13.8 mph - N/A   Overcast
9:53 AM 41.0 °F 33.1 °F 34.0 °F 76% 29.92 in 10.0 mi WNW 15.0 mph - N/A   Overcast
10:01 AM 41.0 °F 32.8 °F 34.0 °F 76% 29.92 in 10.0 mi WNW 16.1 mph - N/A   Overcast
10:53 AM 42.1 °F 34.9 °F 32.0 °F 67% 29.93 in 10.0 mi WNW 13.8 mph - N/A   Overcast
11:53 AM 42.1 °F 34.5 °F 32.0 °F 67% 29.93 in 10.0 mi WNW 15.0 mph 21.9 mph N/A   Overcast
12:53 PM 42.1 °F 34.2 °F 30.9 °F 65% 29.92 in 10.0 mi WNW 16.1 mph - N/A   Overcast
1:53 PM 41.0 °F 32.8 °F 32.0 °F 70% 29.92 in 10.0 mi West 16.1 mph - N/A   Overcast
2:53 PM 41.0 °F 32.5 °F 30.9 °F 67% 29.93 in 10.0 mi West 17.3 mph - N/A   Overcast
3:53 PM 42.1 °F 34.2 °F 32.0 °F 67% 29.94 in 10.0 mi West 16.1 mph - N/A   Overcast
4:53 PM 41.0 °F 33.9 °F 32.0 °F 70% 29.96 in 10.0 mi West 12.7 mph - N/A   Overcast
5:53 PM 41.0 °F 34.3 °F 30.9 °F 67% 29.97 in 10.0 mi West 11.5 mph - N/A   Overcast
6:53 PM 39.9 °F 35.8 °F 30.0 °F 68% 30.01 in 10.0 mi WSW 5.8 mph - N/A   Overcast
7:53 PM 37.0 °F - 28.9 °F 73% 30.01 in 10.0 mi Calm Calm - N/A   Clear
8:53 PM 33.1 °F - 30.0 °F 89% 30.02 in 10.0 mi Calm Calm - N/A   Clear
9:53 PM 30.9 °F - 27.0 °F 85% 30.01 in 10.0 mi Calm Calm - N/A   Clear
10:53 PM 32.0 °F - 27.0 °F 82% 30.01 in 10.0 mi Calm Calm - N/A   Clear
11:53 PM 30.9 °F - 27.0 °F 85% 30.00 in 10.0 mi Calm Calm - N/A   Clear